| time (UTC) | temp C | wind direction | speed KPH | gust KPH | rain 1hr cm | rain 24hr cm | rain mn cm | humidity % | barometer mb |
| 20260508185612 | 19 | 271 | 4.8 | 12.9 | 0.00 | 0.03 | 0.03 | 46 | 1014.9 |
| 20260508185114 | 19 | 292 | 3.2 | 12.9 | 0.00 | 0.03 | 0.03 | 42 | 1015.0 |
| 20260508184609 | 19 | 9 | 3.2 | 12.9 | 0.00 | 0.03 | 0.03 | 42 | 1015.0 |
| 20260508184331 | 18 | 356 | 4.8 | 12.9 | 0.00 | 0.03 | 0.03 | 48 | 1015.1 |
| 20260508183606 | 18 | 318 | 6.4 | 12.9 | 0.00 | 0.03 | 0.03 | 44 | 1015.1 |
| 20260508183105 | 19 | 297 | 4.8 | 11.3 | 0.00 | 0.03 | 0.03 | 42 | 1015.1 |
| 20260508182823 | 19 | 13 | 4.8 | 11.3 | 0.00 | 0.03 | 0.03 | 49 | 1015.1 |
| 20260508182801 | 18 | 3 | 4.8 | 11.3 | 0.00 | 0.03 | 0.03 | 47 | 1015.2 |
| 20260508181603 | 18 | 326 | 4.8 | 12.9 | 0.00 | 0.03 | 0.03 | 45 | 1015.3 |
| 20260508181102 | 18 | 296 | 6.4 | 12.9 | 0.00 | 0.03 | 0.03 | 45 | 1015.4 |
| 20260508180601 | 18 | 104 | 4.8 | 12.9 | 0.00 | 0.03 | 0.03 | 40 | 1015.3 |
| 20260508180101 | 18 | 191 | 3.2 | 8.0 | 0.00 | 0.03 | 0.03 | 45 | 1015.3 |
| 20260508175559 | 18 | 182 | 6.4 | 12.9 | 0.00 | 0.03 | 0.03 | 47 | 1015.4 |
| 20260508175325 | 18 | 340 | 6.4 | 12.9 | 0.00 | 0.03 | 0.03 | 42 | 1015.6 |
| 20260508174557 | 18 | 245 | 6.4 | 19.3 | 0.00 | 0.03 | 0.03 | 51 | 1015.7 |
| 20260508174056 | 18 | 69 | 4.8 | 19.3 | 0.00 | 0.03 | 0.03 | 50 | 1015.8 |
| 20260508173556 | 18 | 203 | 3.2 | 9.7 | 0.00 | 0.03 | 0.03 | 48 | 1015.9 |
| 20260508173545 | 17 | 12 | 6.4 | 12.9 | 0.00 | 0.03 | 0.03 | 48 | 1016.0 |
| 20260508172557 | 18 | 322 | 6.4 | 12.9 | 0.00 | 0.03 | 0.03 | 47 | 1016.1 |
| 20260508172331 | 18 | 352 | 4.8 | 12.9 | 0.00 | 0.03 | 0.03 | 47 | 1016.3 |
| 20260508171823 | 18 | 358 | 3.2 | 8.0 | 0.00 | 0.03 | 0.03 | 53 | 1016.3 |
| 20260508171056 | 17 | 358 | 4.8 | 16.1 | 0.00 | 0.03 | 0.03 | 46 | 1016.4 |
| 20260508170553 | 17 | 254 | 4.8 | 16.1 | 0.00 | 0.03 | 0.03 | 52 | 1016.4 |
| 20260508170055 | 17 | 343 | 4.8 | 14.5 | 0.00 | 0.03 | 0.03 | 49 | 1016.5 |
| 20260508165548 | 17 | 252 | 6.4 | 14.5 | 0.00 | 0.03 | 0.03 | 49 | 1016.6 |
| 20260508165048 | 17 | 353 | 6.4 | 12.9 | 0.00 | 0.03 | 0.03 | 55 | 1016.7 |
| 20260508164549 | 16 | 324 | 6.4 | 14.5 | 0.00 | 0.03 | 0.03 | 47 | 1016.8 |
| 20260508164319 | 17 | 340 | 8.0 | 14.5 | 0.00 | 0.03 | 0.03 | 55 | 1016.9 |
| 20260508163549 | 16 | 322 | 6.4 | 17.7 | 0.00 | 0.03 | 0.03 | 55 | 1016.9 |
| 20260508163053 | 16 | 339 | 6.4 | 17.7 | 0.00 | 0.03 | 0.03 | 50 | 1017.1 |
| 20260508162557 | 16 | 226 | 6.4 | 12.9 | 0.00 | 0.03 | 0.03 | 52 | 1017.2 |
| 20260508162043 | 17 | 303 | 4.8 | 12.9 | 0.00 | 0.03 | 0.03 | 55 | 1017.3 |
| 20260508161810 | 16 | 314 | 4.8 | 12.9 | 0.00 | 0.03 | 0.03 | 55 | 1017.4 |
| 20260508161310 | 16 | 352 | 6.4 | 12.9 | 0.00 | 0.03 | 0.03 | 58 | 1017.5 |
| 20260508160539 | 16 | 328 | 8.0 | 14.5 | 0.00 | 0.03 | 0.03 | 56 | 1017.5 |
| 20260508160042 | 16 | 276 | 6.4 | 14.5 | 0.00 | 0.03 | 0.03 | 60 | 1017.6 |
| 20260508155804 | 15 | 234 | 4.8 | 11.3 | 0.00 | 0.03 | 0.03 | 60 | 1017.6 |
| 20260508155039 | 15 | 253 | 4.8 | 12.9 | 0.00 | 0.03 | 0.03 | 63 | 1017.7 |
| 20260508154536 | 15 | 128 | 4.8 | 12.9 | 0.00 | 0.03 | 0.03 | 58 | 1017.8 |
| 20260508154036 | 15 | 127 | 4.8 | 11.3 | 0.00 | 0.03 | 0.03 | 61 | 1017.8 |
| 20260508153533 | 15 | 259 | 6.4 | 11.3 | 0.00 | 0.03 | 0.03 | 62 | 1017.9 |
| 20260508153258 | 15 | 269 | 4.8 | 11.3 | 0.00 | 0.03 | 0.03 | 67 | 1017.9 |
| 20260508152534 | 14 | 268 | 4.8 | 11.3 | 0.00 | 0.03 | 0.03 | 66 | 1018.0 |
| 20260508152032 | 14 | 214 | 4.8 | 11.3 | 0.00 | 0.03 | 0.03 | 67 | 1018.0 |
| 20260508151749 | 14 | 353 | 4.8 | 11.3 | 0.00 | 0.03 | 0.03 | 71 | 1018.1 |
| 20260508151032 | 13 | 201 | 4.8 | 11.3 | 0.00 | 0.03 | 0.03 | 74 | 1018.1 |
| 20260508150528 | 13 | 245 | 4.8 | 11.3 | 0.00 | 0.03 | 0.03 | 72 | 1018.2 |
| 20260508150027 | 13 | 299 | 6.4 | 12.9 | 0.00 | 0.03 | 0.03 | 76 | 1018.2 |
| 20260508145528 | 13 | 280 | 6.4 | 12.9 | 0.00 | 0.03 | 0.03 | 79 | 1018.2 |
| 20260508145028 | 13 | 279 | 4.8 | 14.5 | 0.00 | 0.03 | 0.03 | 79 | 1018.2 |
| 20260508144530 | 12 | 233 | 3.2 | 14.5 | 0.00 | 0.03 | 0.03 | 84 | 1018.1 |
| 20260508144028 | 12 | 291 | 3.2 | 9.7 | 0.00 | 0.03 | 0.03 | 86 | 1018.2 |
| 20260508143529 | 12 | 248 | 3.2 | 9.7 | 0.00 | 0.03 | 0.03 | 89 | 1018.2 |
| 20260508143303 | 12 | 47 | 3.2 | 9.7 | 0.00 | 0.03 | 0.03 | 93 | 1018.2 |
| 20260508142527 | 11 | 170 | 3.2 | 9.7 | 0.00 | 0.03 | 0.03 | 95 | 1018.2 |
| 20260508142027 | 11 | 163 | 3.2 | 8.0 | 0.00 | 0.03 | 0.03 | 97 | 1018.2 |
| 20260508141523 | 10 | 30 | 1.6 | 4.8 | 0.00 | 0.03 | 0.03 | 96 | 1018.2 |
| 20260508141035 | 10 | 232 | 1.6 | 4.8 | 0.00 | 0.03 | 0.03 | 97 | 1018.3 |
| 20260508140530 | 10 | 309 | 3.2 | 6.4 | 0.00 | 0.03 | 0.03 | 97 | 1018.3 |
| 20260508140037 | 10 | 278 | 3.2 | 9.7 | 0.00 | 0.03 | 0.03 | 98 | 1018.3 |
| 20260508140026 | 10 | 235 | 3.2 | 6.4 | 0.00 | 0.03 | 0.03 | 97 | 1018.3 |
| 20260508135021 | 10 | 146 | 4.8 | 9.7 | 0.00 | 0.03 | 0.03 | 98 | 1018.4 |
| 20260508134519 | 9 | 326 | 3.2 | 9.7 | 0.00 | 0.03 | 0.03 | 97 | 1018.4 |
| 20260508134019 | 9 | 309 | 3.2 | 9.7 | 0.00 | 0.03 | 0.03 | 97 | 1018.5 |
| 20260508133521 | 9 | 299 | 4.8 | 9.7 | 0.00 | 0.03 | 0.03 | 97 | 1018.4 |
| 20260508133019 | 9 | 212 | 4.8 | 9.7 | 0.00 | 0.03 | 0.03 | 98 | 1018.4 |
| 20260508132519 | 8 | 199 | 1.6 | 9.7 | 0.00 | 0.03 | 0.03 | 97 | 1018.4 |
| 20260508132019 | 8 | 178 | 4.8 | 9.7 | 0.00 | 0.03 | 0.03 | 97 | 1018.3 |
| 20260508131808 | 8 | 209 | 4.8 | 9.7 | 0.00 | 0.03 | 0.03 | 98 | 1018.3 |
| 20260508131019 | 8 | 201 | 3.2 | 9.7 | 0.00 | 0.03 | 0.03 | 98 | 1018.3 |
| 20260508130520 | 8 | 100 | 3.2 | 9.7 | 0.00 | 0.03 | 0.03 | 97 | 1018.3 |
| 20260508130016 | 7 | 86 | 3.2 | 9.7 | 0.00 | 0.03 | 0.03 | 97 | 1018.3 |
| 20260508130007 | 7 | 94 | 3.2 | 9.7 | 0.00 | 0.03 | 0.03 | 97 | 1018.2 |
| 20260508125016 | 7 | 118 | 4.8 | 12.9 | 0.00 | 0.03 | 0.03 | 97 | 1018.2 |
| 20260508124513 | 7 | 99 | 4.8 | 12.9 | 0.00 | 0.03 | 0.03 | 97 | 1018.3 |
| 20260508124014 | 7 | 144 | 6.4 | 12.9 | 0.00 | 0.03 | 0.03 | 97 | 1018.2 |
| 20260508123513 | 7 | 192 | 6.4 | 12.9 | 0.00 | 0.03 | 0.03 | 97 | 1018.1 |
| 20260508123502 | 7 | 152 | 4.8 | 12.9 | 0.00 | 0.03 | 0.03 | 97 | 1018.1 |
| 20260508122512 | 7 | 172 | 4.8 | 9.7 | 0.00 | 0.03 | 0.03 | 97 | 1018.1 |
| 20260508122009 | 7 | 126 | 6.4 | 11.3 | 0.00 | 0.03 | 0.03 | 97 | 1018.1 |
| 20260508121517 | 7 | 119 | 6.4 | 11.3 | 0.00 | 0.03 | 0.03 | 97 | 1018.0 |
| 20260508121014 | 7 | 161 | 3.2 | 9.7 | 0.00 | 0.03 | 0.03 | 97 | 1018.0 |
| 20260508120515 | 7 | 151 | 3.2 | 6.4 | 0.00 | 0.03 | 0.03 | 97 | 1017.9 |
| 20260508120011 | 7 | 92 | 4.8 | 9.7 | 0.00 | 0.03 | 0.03 | 97 | 1017.8 |
| 20260508115511 | 7 | 156 | 6.4 | 11.3 | 0.00 | 0.03 | 0.03 | 97 | 1017.7 |
| 20260508115013 | 7 | 178 | 4.8 | 11.3 | 0.00 | 0.03 | 0.03 | 97 | 1017.7 |
| 20260508114510 | 7 | 151 | 4.8 | 12.9 | 0.00 | 0.05 | 0.03 | 97 | 1017.7 |
| 20260508114008 | 7 | 135 | 4.8 | 12.9 | 0.00 | 0.05 | 0.03 | 97 | 1017.7 |
| 20260508113734 | 7 | 89 | 3.2 | 6.4 | 0.00 | 0.05 | 0.03 | 97 | 1017.5 |
| 20260508113246 | 7 | 167 | 1.6 | 6.4 | 0.00 | 0.05 | 0.03 | 97 | 1017.5 |
| 20260508112744 | 7 | 102 | 1.6 | 6.4 | 0.00 | 0.08 | 0.03 | 97 | 1017.3 |
| 20260508112220 | 7 | 102 | 1.6 | 6.4 | 0.00 | 0.08 | 0.03 | 97 | 1017.2 |
| 20260508111452 | 7 | 101 | 1.6 | 6.4 | 0.00 | 0.08 | 0.03 | 97 | 1017.2 |
| 20260508110950 | 7 | 96 | 1.6 | 3.2 | 0.00 | 0.08 | 0.03 | 97 | 1017.1 |
| 20260508110451 | 7 | 96 | 1.6 | 4.8 | 0.00 | 0.08 | 0.03 | 97 | 1017.1 |
| 20260508105952 | 7 | 96 | 1.6 | 4.8 | 0.00 | 0.08 | 0.03 | 97 | 1016.9 |
| 20260508105446 | 7 | 81 | 1.6 | 3.2 | 0.00 | 0.08 | 0.03 | 97 | 1016.9 |
| 20260508104945 | 7 | 99 | 1.6 | 6.4 | 0.00 | 0.08 | 0.03 | 97 | 1016.8 |
| 20260508104443 | 7 | 109 | 3.2 | 6.4 | 0.00 | 0.08 | 0.03 | 97 | 1016.8 |
| 20260508104207 | 7 | 126 | 3.2 | 4.8 | 0.00 | 0.08 | 0.03 | 97 | 1016.8 |
| 20260508103454 | 7 | 99 | 1.6 | 4.8 | 0.00 | 0.08 | 0.03 | 97 | 1016.6 |
| 20260508102956 | 7 | 118 | 1.6 | 4.8 | 0.00 | 0.08 | 0.03 | 97 | 1016.5 |
| 20260508102449 | 7 | 133 | 3.2 | 9.7 | 0.00 | 0.08 | 0.03 | 97 | 1016.5 |
| 20260508101940 | 7 | 122 | 3.2 | 9.7 | 0.00 | 0.08 | 0.03 | 97 | 1016.5 |
| 20260508101438 | 7 | 85 | 1.6 | 6.4 | 0.00 | 0.08 | 0.03 | 97 | 1016.3 |
| 20260508100938 | 7 | 154 | 0.0 | 3.2 | 0.00 | 0.08 | 0.03 | 97 | 1016.3 |
| 20260508100437 | 7 | 112 | 0.0 | 1.6 | 0.00 | 0.08 | 0.03 | 97 | 1016.3 |
| 20260508100203 | 7 | 112 | 1.6 | 6.4 | 0.00 | 0.08 | 0.03 | 97 | 1016.3 |
| 20260508095444 | 7 | 112 | 1.6 | 6.4 | 0.00 | 0.08 | 0.03 | 97 | 1016.3 |
| 20260508094944 | 7 | 112 | 1.6 | 6.4 | 0.00 | 0.08 | 0.03 | 97 | 1016.2 |
| 20260508094437 | 7 | 108 | 0.0 | 0.0 | 0.00 | 0.08 | 0.03 | 97 | 1016.3 |
| 20260508093940 | 7 | 108 | 0.0 | 0.0 | 0.00 | 0.08 | 0.03 | 97 | 1016.2 |
| 20260508093435 | 7 | 108 | 0.0 | 0.0 | 0.00 | 0.08 | 0.03 | 97 | 1016.2 |
| 20260508092936 | 7 | 108 | 0.0 | 0.0 | 0.00 | 0.08 | 0.03 | 97 | 1016.3 |
| 20260508092430 | 7 | 108 | 0.0 | 0.0 | 0.00 | 0.08 | 0.03 | 97 | 1016.3 |
| 20260508091929 | 7 | 108 | 0.0 | 0.0 | 0.00 | 0.08 | 0.03 | 97 | 1016.3 |
| 20260508091431 | 7 | 108 | 0.0 | 0.0 | 0.00 | 0.08 | 0.03 | 97 | 1016.2 |
| 20260508090925 | 7 | 108 | 0.0 | 0.0 | 0.00 | 0.08 | 0.03 | 97 | 1016.2 |
| 20260508090454 | 7 | 108 | 0.0 | 0.0 | 0.00 | 0.08 | 0.03 | 97 | 1016.1 |
| 20260508090430 | 7 | 108 | 0.0 | 0.0 | 0.00 | 0.08 | 0.03 | 97 | 1016.2 |
| 20260508085906 | 7 | 108 | 0.0 | 0.0 | 0.00 | 0.08 | 0.03 | 97 | 1016.1 |
| 20260508084917 | 7 | 108 | 0.0 | 0.0 | 0.00 | 0.08 | 0.03 | 97 | 1015.9 |
| 20260508084418 | 7 | 108 | 0.0 | 0.0 | 0.00 | 0.08 | 0.03 | 97 | 1016.0 |
| 20260508083914 | 7 | 108 | 0.0 | 0.0 | 0.00 | 0.08 | 0.03 | 97 | 1016.1 |
| 20260508083414 | 7 | 108 | 0.0 | 0.0 | 0.00 | 0.08 | 0.03 | 97 | 1016.0 |
| 20260508082915 | 7 | 108 | 0.0 | 0.0 | 0.00 | 0.08 | 0.03 | 97 | 1016.0 |
| 20260508082415 | 7 | 108 | 0.0 | 0.0 | 0.00 | 0.08 | 0.03 | 97 | 1016.1 |
| 20260508081922 | 6 | 108 | 0.0 | 0.0 | 0.00 | 0.10 | 0.03 | 97 | 1016.0 |
| 20260508081422 | 6 | 108 | 0.0 | 0.0 | 0.00 | 0.10 | 0.03 | 96 | 1016.1 |
| 20260508080916 | 7 | 108 | 0.0 | 0.0 | 0.00 | 0.10 | 0.03 | 96 | 1016.0 |
| 20260508080417 | 7 | 108 | 0.0 | 0.0 | 0.00 | 0.10 | 0.03 | 96 | 1016.0 |
| 20260508080142 | 7 | 108 | 0.0 | 0.0 | 0.00 | 0.10 | 0.03 | 96 | 1016.0 |
| 20260508075414 | 7 | 108 | 0.0 | 0.0 | 0.00 | 0.10 | 0.03 | 96 | 1016.0 |
| 20260508074915 | 7 | 108 | 0.0 | 0.0 | 0.00 | 0.10 | 0.03 | 97 | 1016.0 |
| 20260508074416 | 7 | 108 | 0.0 | 0.0 | 0.00 | 0.10 | 0.03 | 97 | 1015.9 |
| 20260508074134 | 7 | 108 | 0.0 | 0.0 | 0.03 | 0.10 | 0.03 | 96 | 1016.1 |
| 20260508073414 | 7 | 108 | 0.0 | 0.0 | 0.03 | 0.10 | 0.03 | 96 | 1016.1 |
| 20260508073145 | 7 | 108 | 0.0 | 0.0 | 0.03 | 0.10 | 0.03 | 96 | 1016.1 |
| 20260508072413 | 7 | 108 | 0.0 | 0.0 | 0.03 | 0.10 | 0.03 | 96 | 1016.0 |
| 20260508071918 | 7 | 108 | 0.0 | 0.0 | 0.03 | 0.10 | 0.03 | 96 | 1016.0 |
| 20260508071417 | 7 | 108 | 0.0 | 0.0 | 0.03 | 0.10 | 0.03 | 96 | 1016.0 |
| 20260508070918 | 7 | 108 | 0.0 | 0.0 | 0.03 | 0.10 | 0.03 | 96 | 1016.0 |
| 20260508070419 | 7 | 108 | 0.0 | 0.0 | 0.03 | 0.10 | 0.03 | 96 | 1016.0 |
| 20260508065920 | 7 | 108 | 0.0 | 0.0 | 0.03 | 0.10 | 0.03 | 97 | 1016.0 |
| 20260508065639 | 7 | 108 | 0.0 | 0.0 | 0.03 | 0.10 | 0.03 | 96 | 1016.1 |
| 20260508064915 | 7 | 108 | 0.0 | 0.0 | 0.03 | 0.10 | 0.03 | 97 | 1016.2 |
| 20260508064415 | 7 | 108 | 0.0 | 0.0 | 0.03 | 0.10 | 0.03 | 97 | 1016.2 |
| 20260508063913 | 6 | 108 | 0.0 | 0.0 | 0.00 | 0.08 | 0.00 | 96 | 1016.1 |
| 20260508063412 | 6 | 108 | 0.0 | 0.0 | 0.00 | 0.08 | 0.00 | 96 | 1016.1 |
| 20260508062913 | 6 | 108 | 0.0 | 0.0 | 0.00 | 0.08 | 0.00 | 96 | 1016.1 |
| 20260508062408 | 7 | 108 | 0.0 | 0.0 | 0.00 | 0.08 | 0.00 | 96 | 1016.1 |
| 20260508061908 | 7 | 108 | 0.0 | 0.0 | 0.00 | 0.08 | 0.00 | 96 | 1016.1 |
| 20260508061409 | 7 | 108 | 0.0 | 0.0 | 0.00 | 0.08 | 0.00 | 96 | 1016.1 |
| 20260508060906 | 7 | 108 | 0.0 | 0.0 | 0.00 | 0.08 | 0.00 | 96 | 1016.2 |
| 20260508060406 | 6 | 108 | 0.0 | 0.0 | 0.00 | 0.08 | 0.00 | 96 | 1016.2 |
| 20260508055903 | 7 | 108 | 0.0 | 1.6 | 0.00 | 0.08 | 0.00 | 96 | 1016.1 |
| 20260508055402 | 7 | 108 | 0.0 | 1.6 | 0.00 | 0.10 | 0.00 | 96 | 1016.1 |
| 20260508054904 | 7 | 108 | 0.0 | 3.2 | 0.00 | 0.10 | 0.00 | 96 | 1016.1 |
| 20260508054403 | 7 | 108 | 0.0 | 3.2 | 0.00 | 0.10 | 0.00 | 96 | 1016.1 |
| 20260508053904 | 7 | 108 | 0.0 | 3.2 | 0.00 | 0.10 | 0.00 | 96 | 1016.2 |
| 20260508053359 | 7 | 108 | 1.6 | 3.2 | 0.00 | 0.10 | 0.00 | 96 | 1016.2 |
| 20260508052857 | 7 | 108 | 1.6 | 3.2 | 0.00 | 0.10 | 0.00 | 96 | 1016.2 |
| 20260508052355 | 6 | 108 | 1.6 | 4.8 | 0.00 | 0.10 | 0.00 | 96 | 1016.2 |
| 20260508051910 | 6 | 116 | 0.0 | 4.8 | 0.00 | 0.10 | 0.00 | 95 | 1016.2 |
| 20260508051856 | 6 | 108 | 1.6 | 4.8 | 0.00 | 0.10 | 0.00 | 95 | 1016.2 |
| 20260508050854 | 7 | 116 | 0.0 | 1.6 | 0.00 | 0.10 | 0.00 | 96 | 1016.1 |
| 20260508050351 | 7 | 116 | 1.6 | 1.6 | 0.00 | 0.10 | 0.00 | 96 | 1016.1 |
| 20260508050116 | 7 | 116 | 1.6 | 3.2 | 0.00 | 0.10 | 0.00 | 96 | 1016.0 |
| 20260508045355 | 7 | 116 | 1.6 | 3.2 | 0.00 | 0.10 | 0.00 | 95 | 1016.0 |
| 20260508044853 | 7 | 116 | 1.6 | 3.2 | 0.00 | 0.10 | 0.00 | 95 | 1015.9 |
| 20260508044354 | 7 | 116 | 1.6 | 3.2 | 0.00 | 0.10 | 0.00 | 95 | 1015.8 |
| 20260508043847 | 7 | 116 | 1.6 | 3.2 | 0.00 | 0.10 | 0.00 | 95 | 1015.7 |
| 20260508043348 | 8 | 116 | 0.0 | 3.2 | 0.00 | 0.10 | 0.00 | 96 | 1015.7 |
| 20260508042847 | 8 | 116 | 0.0 | 3.2 | 0.00 | 0.10 | 0.00 | 96 | 1015.7 |
| 20260508042345 | 8 | 116 | 0.0 | 0.0 | 0.00 | 0.10 | 0.00 | 96 | 1015.7 |
| 20260508041844 | 8 | 116 | 0.0 | 0.0 | 0.00 | 0.10 | 0.00 | 96 | 1015.7 |
| 20260508041618 | 8 | 116 | 0.0 | 0.0 | 0.00 | 0.10 | 0.00 | 96 | 1015.6 |
| 20260508040842 | 8 | 116 | 0.0 | 3.2 | 0.00 | 0.10 | 0.00 | 96 | 1015.5 |
| 20260508040340 | 8 | 116 | 1.6 | 3.2 | 0.00 | 0.10 | 0.00 | 95 | 1015.6 |
| 20260508035843 | 8 | 116 | 1.6 | 3.2 | 0.00 | 0.10 | 0.10 | 95 | 1015.5 |
| 20260508035340 | 8 | 116 | 0.0 | 3.2 | 0.00 | 0.10 | 0.10 | 96 | 1015.5 |
| 20260508034841 | 8 | 116 | 0.0 | 0.0 | 0.00 | 0.10 | 0.10 | 96 | 1015.4 |
| 20260508034342 | 8 | 116 | 0.0 | 0.0 | 0.00 | 0.10 | 0.10 | 95 | 1015.4 |
| 20260508033841 | 8 | 116 | 0.0 | 0.0 | 0.00 | 0.10 | 0.10 | 95 | 1015.4 |
| 20260508033338 | 8 | 116 | 0.0 | 0.0 | 0.00 | 0.10 | 0.10 | 95 | 1015.4 |
| 20260508032839 | 8 | 116 | 1.6 | 3.2 | 0.00 | 0.10 | 0.10 | 95 | 1015.6 |
| 20260508032341 | 8 | 116 | 1.6 | 3.2 | 0.00 | 0.10 | 0.10 | 95 | 1015.6 |
| 20260508032056 | 8 | 116 | 1.6 | 3.2 | 0.00 | 0.10 | 0.10 | 95 | 1015.5 |
| 20260508031554 | 8 | 116 | 0.0 | 3.2 | 0.00 | 0.10 | 0.10 | 95 | 1015.5 |
| 20260508030838 | 8 | 116 | 1.6 | 3.2 | 0.00 | 0.10 | 0.10 | 95 | 1015.4 |
| 20260508030335 | 8 | 116 | 0.0 | 3.2 | 0.00 | 0.10 | 0.10 | 95 | 1015.4 |
| 20260508030048 | 8 | 116 | 0.0 | 1.6 | 0.00 | 0.10 | 0.10 | 95 | 1015.3 |
| 20260508025336 | 8 | 116 | 0.0 | 0.0 | 0.00 | 0.10 | 0.10 | 95 | 1015.2 |
| 20260508024833 | 8 | 116 | 0.0 | 0.0 | 0.00 | 0.10 | 0.10 | 95 | 1015.1 |
| 20260508024328 | 8 | 116 | 1.6 | 3.2 | 0.00 | 0.10 | 0.10 | 95 | 1015.1 |
| 20260508024057 | 8 | 116 | 3.2 | 3.2 | 0.00 | 0.10 | 0.10 | 95 | 1014.9 |
| 20260508023329 | 8 | 116 | 1.6 | 4.8 | 0.00 | 0.10 | 0.10 | 95 | 1014.9 |
| 20260508022830 | 8 | 116 | 0.0 | 4.8 | 0.00 | 0.10 | 0.10 | 94 | 1014.9 |
| 20260508022555 | 8 | 116 | 0.0 | 0.0 | 0.00 | 0.10 | 0.10 | 94 | 1014.9 |
| 20260508022049 | 8 | 116 | 0.0 | 0.0 | 0.00 | 0.10 | 0.10 | 94 | 1014.8 |
| 20260508021548 | 8 | 116 | 0.0 | 0.0 | 0.00 | 0.10 | 0.10 | 94 | 1014.8 |
| 20260508021106 | 8 | 116 | 0.0 | 0.0 | 0.00 | 0.10 | 0.10 | 94 | 1014.8 |
| 20260508020327 | 8 | 116 | 0.0 | 0.0 | 0.00 | 0.10 | 0.10 | 93 | 1014.8 |
| 20260508015827 | 8 | 123 | 0.0 | 3.2 | 0.00 | 0.13 | 0.10 | 93 | 1014.5 |
| 20260508015328 | 8 | 123 | 0.0 | 3.2 | 0.00 | 0.13 | 0.10 | 94 | 1014.3 |
| 20260508014826 | 8 | 123 | 0.0 | 3.2 | 0.00 | 0.15 | 0.10 | 93 | 1014.4 |
| 20260508014550 | 9 | 123 | 1.6 | 4.8 | 0.00 | 0.18 | 0.10 | 93 | 1014.3 |
| 20260508013826 | 9 | 123 | 1.6 | 4.8 | 0.00 | 0.20 | 0.10 | 92 | 1014.2 |
| 20260508013325 | 9 | 222 | 0.0 | 3.2 | 0.00 | 0.23 | 0.10 | 93 | 1014.1 |
| 20260508012825 | 9 | 222 | 0.0 | 0.0 | 0.00 | 0.23 | 0.10 | 92 | 1014.1 |
| 20260508012331 | 10 | 222 | 0.0 | 0.0 | 0.00 | 0.23 | 0.10 | 92 | 1013.9 |
| 20260508012323 | 10 | 222 | 0.0 | 0.0 | 0.00 | 0.23 | 0.10 | 91 | 1013.9 |
| 20260508011329 | 10 | 222 | 0.0 | 0.0 | 0.00 | 0.23 | 0.10 | 91 | 1013.9 |
| 20260508010828 | 10 | 222 | 0.0 | 0.0 | 0.00 | 0.25 | 0.10 | 91 | 1013.8 |
| 20260508010328 | 10 | 222 | 0.0 | 0.0 | 0.00 | 0.25 | 0.10 | 91 | 1013.7 |
| 20260508005830 | 10 | 222 | 0.0 | 0.0 | 0.00 | 0.25 | 0.10 | 90 | 1013.6 |
| 20260508005329 | 10 | 222 | 0.0 | 0.0 | 0.00 | 0.25 | 0.10 | 90 | 1013.6 |
| 20260508004827 | 11 | 222 | 0.0 | 0.0 | 0.00 | 0.28 | 0.10 | 90 | 1013.6 |
| 20260508004326 | 11 | 222 | 0.0 | 0.0 | 0.00 | 0.30 | 0.10 | 90 | 1013.5 |
| 20260508004048 | 11 | 222 | 0.0 | 0.0 | 0.00 | 0.33 | 0.10 | 89 | 1013.4 |
| 20260508003325 | 11 | 222 | 0.0 | 0.0 | 0.00 | 0.33 | 0.10 | 88 | 1013.3 |
| 20260508002824 | 11 | 222 | 0.0 | 0.0 | 0.00 | 0.33 | 0.10 | 87 | 1013.3 |
| 20260508002604 | 12 | 222 | 0.0 | 0.0 | 0.00 | 0.33 | 0.10 | 87 | 1013.3 |
| 20260508001825 | 12 | 222 | 0.0 | 0.0 | 0.00 | 0.36 | 0.10 | 86 | 1013.2 |
| 20260508001325 | 12 | 222 | 0.0 | 1.6 | 0.00 | 0.36 | 0.10 | 86 | 1013.3 |
| 20260508000827 | 12 | 222 | 0.0 | 1.6 | 0.00 | 0.36 | 0.10 | 84 | 1013.4 |
| 20260508000327 | 13 | 222 | 0.0 | 0.0 | 0.00 | 0.36 | 0.10 | 84 | 1013.3 |
| 20260507235821 | 13 | 222 | 0.0 | 3.2 | 0.00 | 0.36 | 0.10 | 84 | 1013.3 |
| 20260507235319 | 13 | 222 | 1.6 | 3.2 | 0.00 | 0.36 | 0.10 | 84 | 1013.3 |
| 20260507234820 | 13 | 222 | 1.6 | 4.8 | 0.00 | 0.36 | 0.10 | 83 | 1013.3 |
| 20260507234320 | 13 | 222 | 3.2 | 4.8 | 0.00 | 0.36 | 0.10 | 83 | 1013.4 |
| 20260507233819 | 13 | 228 | 3.2 | 6.4 | 0.00 | 0.36 | 0.10 | 83 | 1013.3 |
| 20260507233318 | 13 | 228 | 3.2 | 6.4 | 0.00 | 0.36 | 0.10 | 84 | 1013.3 |
| 20260507232820 | 13 | 224 | 3.2 | 8.0 | 0.00 | 0.36 | 0.10 | 84 | 1013.4 |
| 20260507232317 | 13 | 238 | 3.2 | 8.0 | 0.00 | 0.36 | 0.10 | 83 | 1013.4 |
| 20260507231815 | 13 | 234 | 4.8 | 11.3 | 0.00 | 0.36 | 0.10 | 83 | 1013.5 |
| 20260507231313 | 13 | 199 | 3.2 | 11.3 | 0.00 | 0.36 | 0.10 | 82 | 1013.4 |
| 20260507230818 | 13 | 236 | 3.2 | 8.0 | 0.00 | 0.36 | 0.10 | 82 | 1013.4 |
| 20260507230759 | 13 | 239 | 1.6 | 8.0 | 0.00 | 0.36 | 0.10 | 82 | 1013.5 |
| 20260507230050 | 13 | 195 | 1.6 | 6.4 | 0.00 | 0.36 | 0.10 | 82 | 1013.4 |
| 20260507225539 | 13 | 241 | 1.6 | 6.4 | 0.00 | 0.36 | 0.10 | 82 | 1013.4 |
| 20260507224814 | 13 | 194 | 3.2 | 6.4 | 0.00 | 0.36 | 0.10 | 82 | 1013.5 |
| 20260507224313 | 13 | 235 | 4.8 | 9.7 | 0.00 | 0.36 | 0.10 | 82 | 1013.5 |
| 20260507223814 | 13 | 215 | 4.8 | 9.7 | 0.00 | 0.36 | 0.10 | 82 | 1013.5 |
| 20260507223313 | 13 | 234 | 6.4 | 9.7 | 0.00 | 0.36 | 0.10 | 82 | 1013.4 |
| 20260507222814 | 13 | 197 | 6.4 | 11.3 | 0.00 | 0.36 | 0.10 | 82 | 1013.3 |
| 20260507222313 | 13 | 212 | 6.4 | 11.3 | 0.00 | 0.36 | 0.10 | 81 | 1013.2 |
| 20260507221813 | 13 | 232 | 6.4 | 11.3 | 0.00 | 0.36 | 0.10 | 82 | 1013.1 |
| 20260507221312 | 13 | 211 | 8.0 | 11.3 | 0.00 | 0.36 | 0.10 | 82 | 1013.2 |
| 20260507220811 | 13 | 200 | 6.4 | 11.3 | 0.00 | 0.36 | 0.10 | 81 | 1013.2 |
| 20260507220308 | 14 | 212 | 3.2 | 11.3 | 0.00 | 0.36 | 0.10 | 81 | 1013.1 |
| 20260507220302 | 14 | 216 | 1.6 | 8.0 | 0.00 | 0.36 | 0.10 | 81 | 1013.1 |
| 20260507215539 | 14 | 219 | 3.2 | 8.0 | 0.00 | 0.36 | 0.10 | 80 | 1013.0 |
| 20260507214804 | 14 | 262 | 4.8 | 9.7 | 0.00 | 0.36 | 0.10 | 80 | 1013.0 |
| 20260507214306 | 14 | 199 | 3.2 | 9.7 | 0.00 | 0.36 | 0.10 | 81 | 1013.0 |
| 20260507213804 | 14 | 242 | 4.8 | 9.7 | 0.00 | 0.36 | 0.10 | 81 | 1013.0 |
| 20260507213303 | 14 | 239 | 4.8 | 11.3 | 0.00 | 0.36 | 0.10 | 81 | 1012.9 |
| 20260507212804 | 14 | 204 | 6.4 | 11.3 | 0.00 | 0.36 | 0.10 | 82 | 1012.9 |
| 20260507212753 | 14 | 196 | 6.4 | 12.9 | 0.00 | 0.36 | 0.10 | 84 | 1012.8 |
| 20260507212455 | 13 | 176 | 8.0 | 14.5 | 0.00 | 0.36 | 0.10 | 84 | 1012.9 |
| 20260507211258 | 13 | 205 | 6.4 | 14.5 | 0.00 | 0.36 | 0.10 | 85 | 1013.0 |
| 20260507210759 | 13 | 174 | 4.8 | 9.7 | 0.00 | 0.36 | 0.10 | 86 | 1012.8 |
| 20260507210302 | 13 | 183 | 3.2 | 9.7 | 0.00 | 0.36 | 0.10 | 87 | 1012.8 |
| 20260507210024 | 12 | 147 | 3.2 | 8.0 | 0.00 | 0.36 | 0.10 | 88 | 1012.8 |
| 20260507205306 | 12 | 191 | 4.8 | 8.0 | 0.00 | 0.36 | 0.10 | 87 | 1012.8 |
| 20260507204755 | 12 | 216 | 4.8 | 8.0 | 0.00 | 0.36 | 0.10 | 87 | 1012.8 |
| 20260507204520 | 12 | 143 | 4.8 | 8.0 | 0.00 | 0.36 | 0.10 | 87 | 1012.8 |
| 20260507203755 | 12 | 205 | 3.2 | 8.0 | 0.00 | 0.36 | 0.10 | 87 | 1012.9 |
| 20260507203519 | 12 | 240 | 3.2 | 8.0 | 0.00 | 0.36 | 0.10 | 87 | 1013.0 |
| 20260507202752 | 12 | 247 | 3.2 | 6.4 | 0.00 | 0.36 | 0.10 | 86 | 1013.0 |
| 20260507202248 | 12 | 253 | 3.2 | 6.4 | 0.00 | 0.36 | 0.10 | 86 | 1013.0 |
| 20260507201742 | 12 | 239 | 4.8 | 8.0 | 0.00 | 0.36 | 0.10 | 86 | 1013.0 |
| 20260507201238 | 12 | 232 | 4.8 | 11.3 | 0.00 | 0.36 | 0.10 | 87 | 1013.0 |
| 20260507200738 | 12 | 273 | 3.2 | 11.3 | 0.00 | 0.36 | 0.10 | 86 | 1013.0 |
| 20260507200239 | 12 | 261 | 1.6 | 6.4 | 0.00 | 0.36 | 0.10 | 88 | 1012.9 |
| 20260507195740 | 12 | 212 | 3.2 | 8.0 | 0.00 | 0.36 | 0.10 | 87 | 1012.9 |
| 20260507195500 | 12 | 251 | 4.8 | 8.0 | 0.00 | 0.36 | 0.10 | 87 | 1013.0 |
| 20260507194739 | 12 | 213 | 4.8 | 8.0 | 0.00 | 0.36 | 0.10 | 87 | 1013.0 |
| 20260507194503 | 12 | 237 | 4.8 | 8.0 | 0.00 | 0.36 | 0.10 | 87 | 1012.9 |
| 20260507193738 | 12 | 258 | 4.8 | 6.4 | 0.00 | 0.36 | 0.10 | 86 | 1012.9 |
| 20260507193515 | 12 | 230 | 3.2 | 6.4 | 0.00 | 0.36 | 0.10 | 87 | 1012.8 |
| 20260507192738 | 12 | 227 | 3.2 | 6.4 | 0.00 | 0.36 | 0.10 | 88 | 1012.8 |
| 20260507192238 | 11 | 232 | 3.2 | 4.8 | 0.00 | 0.36 | 0.10 | 88 | 1013.0 |
| 20260507191954 | 11 | 240 | 4.8 | 6.4 | 0.00 | 0.36 | 0.10 | 87 | 1013.0 |
| 20260507191239 | 11 | 270 | 4.8 | 8.0 | 0.00 | 0.36 | 0.10 | 87 | 1013.1 |
| 20260507190740 | 11 | 255 | 1.6 | 8.0 | 0.00 | 0.36 | 0.10 | 89 | 1013.1 |
| 20260507190237 | 11 | 258 | 1.6 | 6.4 | 0.00 | 0.36 | 0.10 | 88 | 1013.1 |
| 20260507185959 | 11 | 246 | 1.6 | 6.4 | 0.00 | 0.36 | 0.10 | 89 | 1013.1 |